Location: Aigremont
(47.7188°N, 3.8925°E)
Time: 03:00:44
(UTC+00:00)

Cosmos 2173 Rocket - Pass Details

Date: 18 February 2020
Orbit: 944 x 1002 km, 83.0° (Epoch: 03 April)

Event Time Altitude Azimuth Distance (km) Brightness Sun altitude
Rises 05:04:50 0° 350° (N) 3,720 7.0 -17.7°
Reaches altitude 10° 05:07:23 10° 351° (N) 2,760 6.3 -17.3°
Maximum altitude 05:13:43 88° 265° (W) 986 4.0 -16.2°
Drops below altitude 10° 05:19:56 10° 174° (S) 2,701 6.4 -15.2°
Sets 05:22:24 0° 175° (S) 3,636 7.1 -14.7°
